Weather History for Pensacola NAS, FL

Change the Weather History Date:

Friday, July 5, 2013

  Actual Average Record
Temperature  
Mean Temperature 74 °F -  
Max Temperature 79 °F 86 °F 93 °F (1998)
Min Temperature 69 °F 71 °F 69 °F (2013)
Cooling Degree Days 9    
Growing Degree Days 24 (Base 50)    
Moisture  
Dew Point 72 °F    
Average Humidity 89    
Maximum Humidity 100    
Minimum Humidity 82    
Precipitation  
Precipitation 1.31 in - - ()
Sea Level Pressure  
Sea Level Pressure 30.05 in    
Wind  
Wind Speed 10 mph (South)    
Max Wind Speed 17 mph    
Max Gust Speed 20 mph    
Visibility 8 miles    
Events Fog , Rain , Thunderstorm    
Averages and records for this station are not official NWS values.
T = Trace of Precipitation, MM = Missing Value Source: NWS Daily Summary

Daily Weather History Graph

Daily Weather History Graph

Search for Another Location

Airport:

Trip Planner

Search our weather history database for the weather conditions in past years. The results will help you decide how hot, cold, wet, or windy it might be!

Date:

Astronomy

Jul. 05, 2013 Rise Set
Actual Time 5:52 AM CDT 7:55 PM CDT
Civil Twilight 5:25 AM CDT 8:22 PM CDT
Nautical Twilight 4:52 AM CDT 8:55 PM CDT
Astronomical Twilight 4:16 AM CDT 9:31 PM CDT
Moon 3:47 AM CDT (7/5) 5:53 PM CDT (7/5)
Length of Visible Light 14h 57m
Length of Day
14h 02m
Waning Crescent, 6% of the Moon is Illuminated
Jul 5
Waning Crescent
Jul 8
New
Jul 15
First Quarter
Jul 22
Full
Jul 29
Last Quarter

Hourly Weather History & Observations

Time (CDT) Temp. Dew Point Humidity Pressure Visibility Wind Dir Wind Speed Gust Speed Precip Events Conditions
12:56 AM 79.0 °F 73.0 °F 82% 30.01 in 10.0 mi South 12.7 mph - N/A   Scattered Clouds
1:25 AM 78.8 °F 73.4 °F 83% 30.00 in 10.0 mi South 11.5 mph - N/A   Mostly Cloudy
1:56 AM 79.0 °F 73.0 °F 82% 30.01 in 10.0 mi SSW 13.8 mph - N/A   Partly Cloudy
2:18 AM 78.8 °F 73.4 °F 83% 30.01 in 10.0 mi SSW 10.4 mph - N/A   Mostly Cloudy
2:53 AM 78.8 °F 73.4 °F 83% 30.00 in 10.0 mi SSW 10.4 mph - 0.00 in   Mostly Cloudy
2:56 AM 79.0 °F 73.9 °F 84% 30.01 in 10.0 mi SSW 9.2 mph - 0.00 in   Mostly Cloudy
3:05 AM 78.8 °F 73.4 °F 83% 30.00 in 10.0 mi SSW 11.5 mph - N/A   Mostly Cloudy
3:14 AM 78.8 °F 73.4 °F 83% 30.01 in 10.0 mi SSW 10.4 mph - N/A   Mostly Cloudy
3:56 AM 78.1 °F 73.9 °F 87% 30.02 in 10.0 mi South 9.2 mph - N/A   Scattered Clouds
4:27 AM 77.0 °F 73.4 °F 89% 30.01 in 8.0 mi SW 6.9 mph - N/A   Overcast
4:56 AM 77.0 °F 73.9 °F 90% 30.02 in 6.0 mi SSE 12.7 mph 19.6 mph 0.02 in Rain Light Rain
5:46 AM 78.8 °F 73.4 °F 83% 30.02 in 10.0 mi SSE 10.4 mph - 0.00 in Thunderstorm Thunderstorm
5:56 AM 77.0 °F 73.9 °F 90% 30.03 in 8.0 mi South 17.3 mph - 0.00 in   Overcast
6:56 AM 77.0 °F 73.9 °F 90% 30.04 in 10.0 mi ESE 5.8 mph - 0.01 in Rain Light Rain
7:13 AM 78.8 °F 73.4 °F 83% 30.03 in 10.0 mi SSE 9.2 mph - 0.00 in Rain , Thunderstorm Light Thunderstorms and Rain
7:56 AM 75.9 °F 73.0 °F 91% 30.04 in 10.0 mi NNW 5.8 mph - 0.00 in Thunderstorm Thunderstorm
8:56 AM 78.1 °F 73.9 °F 87% 30.06 in 10.0 mi ESE 10.4 mph - N/A Thunderstorm Thunderstorm
9:30 AM 73.4 °F 71.6 °F 94% 30.07 in 4.0 mi SW 9.2 mph - N/A Rain , Thunderstorm Thunderstorms and Rain
9:54 AM 73.4 °F 71.6 °F 94% 30.06 in 0.5 mi South 9.2 mph 19.6 mph N/A Fog , Rain , Thunderstorm Heavy Thunderstorms and Rain
9:56 AM 73.0 °F 71.1 °F 93% 30.07 in 0.5 mi South 8.1 mph 19.6 mph N/A Fog , Rain , Thunderstorm Heavy Thunderstorms and Rain
10:35 AM 69.8 °F 68.0 °F 94% 30.08 in 1.0 mi NE 5.8 mph - 0.19 in Rain , Thunderstorm Heavy Thunderstorms and Rain
10:56 AM 70.0 °F 69.1 °F 97% 30.10 in 0.5 mi SE 8.1 mph - 0.31 in Fog , Rain , Thunderstorm Thunderstorms and Rain
11:12 AM 69.8 °F 69.8 °F 100% 30.10 in 1.0 mi Calm Calm - 0.09 in Rain , Thunderstorm Heavy Thunderstorms and Rain
11:21 AM 69.8 °F 68.0 °F 94% 30.09 in 2.0 mi NW 6.9 mph - 0.14 in Rain , Thunderstorm Heavy Thunderstorms and Rain
11:30 AM 69.8 °F 68.0 °F 94% 30.08 in 5.0 mi NW 3.5 mph - 0.19 in Rain , Thunderstorm Light Thunderstorms and Rain
11:48 AM 69.8 °F 68.0 °F 94% 30.11 in 10.0 mi WSW 10.4 mph - 0.30 in Rain Light Rain
11:56 AM 70.0 °F 68.0 °F 93% 30.11 in 7.0 mi SW 11.5 mph - 0.34 in Rain Rain
12:56 PM 73.9 °F 70.0 °F 87% 30.09 in 10.0 mi SW 8.1 mph - 0.27 in   Overcast
1:56 PM 75.0 °F 72.0 °F 90% 30.08 in 10.0 mi NW 4.6 mph - 0.20 in   Overcast
2:56 PM 75.9 °F 71.1 °F 85% 30.09 in 10.0 mi Calm Calm - N/A   Overcast
3:34 PM 73.4 °F 71.6 °F 94% 30.08 in 10.0 mi East 8.1 mph - N/A Rain Light Rain
3:56 PM 73.0 °F 71.1 °F 93% 30.07 in 8.0 mi East 10.4 mph - 0.04 in Rain Light Rain
4:56 PM 73.0 °F 70.0 °F 90% 30.06 in 9.0 mi ESE 10.4 mph - 0.09 in Rain Light Rain
5:56 PM 73.0 °F 70.0 °F 90% 30.05 in 10.0 mi ESE 6.9 mph - 0.03 in Rain Light Rain
6:27 PM 73.4 °F 69.8 °F 88% 30.04 in 10.0 mi Calm Calm - 0.00 in   Overcast
6:56 PM 73.0 °F 70.0 °F 90% 30.05 in 10.0 mi Calm Calm - 0.00 in   Overcast
7:56 PM 72.0 °F 71.1 °F 97% 30.05 in 10.0 mi NNW 3.5 mph - N/A   Overcast
8:56 PM 72.0 °F 71.1 °F 97% 30.04 in 10.0 mi East 3.5 mph - N/A   Overcast
9:56 PM 75.9 °F 71.1 °F 85% 30.04 in 10.0 mi SE 10.4 mph - N/A   Overcast
10:56 PM 75.9 °F 72.0 °F 87% 30.03 in 10.0 mi SE 15.0 mph - 0.00 in   Overcast
11:41 PM 75.2 °F 71.6 °F 89% 30.02 in 10.0 mi SE 16.1 mph - N/A   Mostly Cloudy
11:49 PM 75.2 °F 71.6 °F 89% 30.02 in 10.0 mi ESE 16.1 mph - N/A   Scattered Clouds
11:56 PM 75.9 °F 72.0 °F 87% 30.02 in 10.0 mi SE 16.1 mph - N/A   Scattered Clouds